Terminal Aerodrome Forecast
Issued by NWS

Current Version | Previous Version | Text Only | Print | Product List | Glossary On
Versions: 1 2 3 4 5 6 7 8 9 10 11 12 13 14 15
000
FTUS46 KMTR 032300
TAFSJC
TAF
KSJC 032334Z 0400/0424 30012KT P6SM SKC
     FM040400 30007KT P6SM SKC
     FM040900 13005KT P6SM BKN015
     FM041700 VRB03KT P6SM SCT020
     FM041900 31010KT P6SM SKC=

USA.gov is the U.S. government's official web portal to all federal, state and local government web resources and services.